GW6945 Weather Reports


Display with metric or nautical units.
time (UTC)temp
F
wind
direction
speed
MPH
gust
MPH
rain 1hr
in
rain 24hr
in
rain mn
in
humidity
%
barometer
mb
20260503184529 61 226 4.0 4.0 0.00 0.00 0.00 37 1051.7
20260503184025 61 254 4.0 4.0 0.00 0.00 0.00 39 1051.8
20260503183522 61 223 3.0 3.0 0.00 0.00 0.00 35 1051.9
20260503183019 60 208 1.0 2.0 0.00 0.00 0.00 37 1051.8
20260503182518 60 255 7.0 8.0 0.00 0.00 0.00 34 1052.1
20260503182015 61 231 7.0 10.0 0.00 0.00 0.00 36 1051.8
20260503181512 61 199 5.0 7.0 0.00 0.00 0.00 34 1052.0
20260503181008 60 204 6.0 8.0 0.00 0.00 0.00 32 1052.1
20260503180506 60 169 2.0 6.0 0.00 0.00 0.00 39 1052.1
20260503180003 60 253 2.0 2.0 0.00 0.00 0.00 39 1052.1
20260503175500 60 240 6.0 8.0 0.00 0.00 0.00 38 1052.3
20260503174956 60 234 6.0 8.0 0.00 0.00 0.00 36 1052.6
20260503174455 60 223 1.0 2.0 0.00 0.00 0.00 41 1052.4
20260503173950 60 217 6.0 7.0 0.00 0.00 0.00 36 1052.6
20260503173445 60 234 4.0 6.0 0.00 0.00 0.00 35 1052.7
20260503172943 60 218 2.0 2.0 0.00 0.00 0.00 41 1052.6
20260503172440 58 286 0.0 4.0 0.00 0.00 0.00 42 1052.7
20260503171936 59 316 4.0 6.0 0.00 0.00 0.00 33 1052.8
20260503171433 59 182 3.0 3.0 0.00 0.00 0.00 33 1053.2
20260503170931 59 201 2.0 7.0 0.00 0.00 0.00 32 1053.4
20260503170427 59 255 4.0 6.0 0.00 0.00 0.00 35 1053.3
20260503150819 56 196 3.0 8.0 0.00 0.00 0.00 38 1054.3
20260503150315 56 238 3.0 4.0 0.00 0.00 0.00 39 1054.4
20260503140240 53 212 3.0 6.0 0.00 0.00 0.00 49 1054.4
20260503131209 49 214 2.0 2.0 0.00 0.00 0.00 56 1054.3
20260503130707 48 209 2.0 3.0 0.00 0.00 0.00 58 1054.1
20260503130204 47 221 3.0 3.0 0.00 0.00 0.00 60 1054.2
20260503120129 40 208 2.0 2.0 0.00 0.00 0.00 73 1054.0
20260503110557 36 205 1.0 2.0 0.00 0.00 0.00 78 1053.4
20260503090444 33 248 0.0 0.0 0.00 0.00 0.00 90 1052.7
20260503081410 33 249 0.0 0.0 0.00 0.00 0.00 91 1052.4
20260503080907 33 249 0.0 0.0 0.00 0.00 0.00 91 1052.4
20260503080404 33 250 0.0 0.0 0.00 0.00 0.00 91 1052.3
20260503072840 33 259 0.0 0.0 0.00 0.00 0.00 88 1052.4
20260503072337 34 259 0.0 0.0 0.00 0.00 0.00 87 1052.3
20260503071833 34 259 0.0 0.0 0.00 0.00 0.00 87 1052.2
20260503071331 34 259 0.0 0.0 0.00 0.00 0.00 87 1052.2
20260503070827 34 259 0.0 0.0 0.00 0.00 0.00 87 1052.3
20260503070325 35 259 0.0 0.0 0.00 0.00 0.00 86 1052.3
20260503060250 37 301 0.0 0.0 0.00 0.00 0.00 81 1052.3
20260503054737 38 301 0.0 0.0 0.00 0.00 0.00 80 1052.5
20260503054234 38 301 0.0 0.0 0.00 0.00 0.00 79 1052.5
20260503053732 38 301 0.0 0.0 0.00 0.00 0.00 76 1052.5
20260503053231 38 301 0.0 0.0 0.00 0.00 0.00 79 1052.4
20260503052726 38 301 0.0 0.0 0.00 0.00 0.00 80 1052.7
20260503052223 38 301 0.0 0.0 0.00 0.00 0.00 76 1052.6
20260503051718 38 301 0.0 0.0 0.00 0.00 0.00 78 1052.7
20260503051216 38 301 0.0 0.0 0.00 0.00 0.00 77 1052.5
20260503050712 38 301 0.0 0.0 0.00 0.00 0.00 75 1052.5
20260503050209 38 301 0.0 0.0 0.00 0.00 0.00 76 1052.6
20260503045707 39 301 0.0 0.0 0.00 0.00 0.00 76 1052.7
20260503045204 39 301 0.0 0.0 0.00 0.00 0.00 73 1052.5
20260503044700 39 301 0.0 0.0 0.00 0.00 0.00 71 1052.5
20260503044158 39 301 0.0 0.0 0.00 0.00 0.00 71 1052.6
20260503043654 39 301 0.0 0.0 0.00 0.00 0.00 73 1052.5
20260503043152 39 301 0.0 0.0 0.00 0.00 0.00 74 1052.7
20260503042648 38 301 0.0 0.0 0.00 0.00 0.00 74 1052.6
20260503042144 39 301 0.0 0.0 0.00 0.00 0.00 75 1052.3
20260503041641 39 301 0.0 0.0 0.00 0.00 0.00 75 1052.4
20260503041138 39 301 0.0 0.0 0.00 0.00 0.00 74 1052.5
20260503040636 40 301 0.0 0.0 0.00 0.00 0.00 74 1052.5
20260503040133 40 301 0.0 0.0 0.00 0.00 0.00 74 1052.3
20260503035629 40 301 0.0 0.0 0.00 0.00 0.00 73 1052.3
20260503035127 40 301 0.0 0.0 0.00 0.00 0.00 75 1052.6
20260503034624 40 301 0.0 0.0 0.00 0.00 0.00 78 1052.3
20260503034121 40 301 0.0 0.0 0.00 0.00 0.00 80 1052.2
20260503033619 39 301 0.0 0.0 0.00 0.00 0.00 76 1052.5
20260503033116 39 301 0.0 0.0 0.00 0.00 0.00 76 1052.3
20260503032615 40 301 0.0 0.0 0.00 0.00 0.00 74 1052.2
20260503032113 40 301 0.0 0.0 0.00 0.00 0.00 75 1052.0
20260503031610 40 301 0.0 0.0 0.00 0.00 0.00 75 1052.2
20260503031107 40 301 0.0 0.0 0.00 0.00 0.00 74 1052.3
20260503030603 40 301 0.0 0.0 0.00 0.00 0.00 75 1052.2
20260503030100 40 301 0.0 0.0 0.00 0.00 0.00 75 1052.2
20260503025557 40 301 0.0 0.0 0.00 0.00 0.00 75 1052.1
20260503025055 40 301 0.0 0.0 0.00 0.00 0.00 75 1052.2
20260503024550 40 301 0.0 0.0 0.00 0.00 0.00 78 1052.2
20260503024048 40 301 0.0 0.0 0.00 0.00 0.00 77 1052.0
20260503023544 41 301 0.0 0.0 0.00 0.00 0.00 77 1051.9
20260503023042 41 301 0.0 0.0 0.00 0.00 0.00 78 1051.9
20260503022538 42 301 0.0 0.0 0.00 0.00 0.00 74 1051.7
20260503022033 42 301 0.0 0.0 0.00 0.00 0.00 73 1051.7
20260503021530 43 301 0.0 0.0 0.00 0.00 0.00 71 1051.6
20260503021027 44 301 0.0 0.0 0.00 0.00 0.00 71 1051.4
20260503020524 44 301 1.0 1.0 0.00 0.00 0.00 70 1051.3
20260503020021 44 301 0.0 1.0 0.00 0.00 0.00 69 1051.2
20260503015517 45 301 0.0 0.0 0.00 0.00 0.00 67 1051.4
20260503015014 45 301 0.0 0.0 0.00 0.00 0.00 67 1051.1
20260503014510 45 301 0.0 0.0 0.00 0.00 0.00 68 1051.2
20260503014009 45 301 0.0 0.0 0.00 0.00 0.00 69 1051.0
20260503013506 45 301 0.0 0.0 0.00 0.00 0.00 70 1051.1
20260503013003 45 301 0.0 0.0 0.00 0.00 0.00 68 1051.0
20260503012500 46 301 0.0 0.0 0.00 0.00 0.00 68 1050.9
20260503011956 45 301 0.0 0.0 0.00 0.00 0.00 67 1050.9
20260503011453 46 301 0.0 0.0 0.00 0.00 0.00 65 1050.8
20260503010950 46 301 0.0 0.0 0.00 0.00 0.00 64 1050.8
20260503010447 47 301 0.0 0.0 0.00 0.00 0.00 62 1050.8
20260503005944 47 301 0.0 0.0 0.00 0.00 0.00 61 1050.7
20260503005442 47 301 0.0 0.0 0.00 0.00 0.00 61 1050.8
20260503004938 47 301 0.0 1.0 0.00 0.00 0.00 61 1050.7
20260503004435 48 301 1.0 1.0 0.00 0.00 0.00 62 1050.7
20260503003933 48 301 1.0 1.0 0.00 0.00 0.00 62 1050.6
20260503003429 48 301 1.0 1.0 0.00 0.00 0.00 61 1050.6
20260503002926 49 301 1.0 1.0 0.00 0.00 0.00 60 1050.6
20260503002424 49 301 1.0 1.0 0.00 0.00 0.00 58 1050.3
20260503001920 50 301 1.0 2.0 0.00 0.00 0.00 59 1050.4
20260503001416 51 299 1.0 3.0 0.00 0.00 0.00 57 1050.2
20260503000914 51 302 2.0 3.0 0.00 0.00 0.00 55 1050.2
20260503000411 51 295 2.0 3.0 0.00 0.00 0.00 56 1050.2
20260502235908 51 298 3.0 3.0 0.00 0.00 0.00 54 1050.0
20260502235405 51 299 4.0 4.0 0.00 0.00 0.00 52 1050.0
20260502234902 50 296 3.0 3.0 0.00 0.00 0.00 55 1050.1
20260502234359 50 313 2.0 3.0 0.00 0.00 0.00 56 1050.0
20260502233856 51 309 3.0 3.0 0.00 0.00 0.00 56 1050.0
20260502233351 52 303 2.0 6.0 0.00 0.00 0.00 52 1049.8
20260502232849 52 304 5.0 6.0 0.00 0.00 0.00 50 1050.0
20260502232345 53 304 4.0 6.0 0.00 0.00 0.00 49 1049.9
20260502231842 53 325 4.0 4.0 0.00 0.00 0.00 51 1049.9
20260502231339 53 301 2.0 3.0 0.00 0.00 0.00 54 1049.9
20260502230837 53 299 3.0 6.0 0.00 0.00 0.00 49 1050.0
20260502230335 53 306 4.0 6.0 0.00 0.00 0.00 47 1049.9
20260502225832 53 320 4.0 4.0 0.00 0.00 0.00 50 1050.0
20260502225328 54 316 4.0 6.0 0.00 0.00 0.00 50 1049.9
20260502224825 53 303 5.0 8.0 0.00 0.00 0.00 48 1050.0
20260502224321 53 303 2.0 4.0 0.00 0.00 0.00 50 1050.1
20260502223819 53 301 6.0 7.0 0.00 0.00 0.00 49 1050.1
20260502223317 53 319 4.0 6.0 0.00 0.00 0.00 51 1050.1
20260502222815 53 315 3.0 3.0 0.00 0.00 0.00 51 1050.0
20260502222312 53 331 2.0 2.0 0.00 0.00 0.00 52 1050.1
20260502221807 53 323 3.0 4.0 0.00 0.00 0.00 49 1050.1
20260502221303 53 304 5.0 7.0 0.00 0.00 0.00 50 1050.0
20260502220801 53 282 6.0 7.0 0.00 0.00 0.00 51 1050.2
20260502220256 53 309 5.0 6.0 0.00 0.00 0.00 49 1050.2
20260502215754 54 300 4.0 4.0 0.00 0.00 0.00 52 1050.0
20260502215251 53 309 3.0 4.0 0.00 0.00 0.00 53 1050.1
20260502214748 53 310 5.0 6.0 0.00 0.00 0.00 51 1049.9
20260502214244 54 300 5.0 7.0 0.00 0.00 0.00 49 1049.9
20260502213742 54 308 3.0 3.0 0.00 0.00 0.00 51 1049.8
20260502213239 55 302 6.0 10.0 0.00 0.00 0.00 48 1049.8
20260502212738 55 316 3.0 3.0 0.00 0.00 0.00 49 1049.7
20260502212236 54 310 2.0 2.0 0.00 0.00 0.00 54 1049.9
20260502211731 52 311 3.0 3.0 0.00 0.00 0.00 54 1049.8
20260502211228 52 315 3.0 4.0 0.00 0.00 0.00 55 1049.9
20260502210725 52 310 1.0 1.0 0.00 0.00 0.00 57 1049.9
20260502210223 52 330 3.0 4.0 0.00 0.00 0.00 53 1050.0
20260502205720 53 329 2.0 3.0 0.00 0.00 0.00 55 1049.9
20260502205216 53 287 4.0 4.0 0.00 0.00 0.00 50 1050.0
20260502204713 53 287 4.0 6.0 0.00 0.00 0.00 50 1050.0
20260502204211 53 307 5.0 6.0 0.00 0.00 0.00 50 1049.9
20260502203708 54 308 4.0 7.0 0.00 0.00 0.00 50 1049.9
20260502203206 54 317 4.0 3.0 0.00 0.00 0.00 49 1049.8
20260502202700 54 301 4.0 4.0 0.00 0.00 0.00 51 1050.0
20260502202159 54 304 4.0 8.0 0.00 0.00 0.00 50 1049.8
20260502201656 53 259 4.0 4.0 0.00 0.00 0.00 50 1049.9
20260502201152 54 286 5.0 6.0 0.00 0.00 0.00 52 1050.0
20260502200648 53 300 3.0 3.0 0.00 0.00 0.00 54 1050.1
20260502200144 54 308 8.0 10.0 0.00 0.00 0.00 51 1050.1
20260502195643 54 297 5.0 7.0 0.00 0.00 0.00 49 1050.1
20260502195139 54 293 7.0 10.0 0.00 0.00 0.00 51 1050.4
20260502194635 54 304 4.0 4.0 0.00 0.00 0.00 49 1050.2
20260502194132 54 297 4.0 4.0 0.00 0.00 0.00 51 1050.3
20260502193629 54 321 4.0 4.0 0.00 0.00 0.00 52 1050.3
20260502193126 54 306 8.0 8.0 0.00 0.00 0.00 48 1050.2
20260502192621 54 292 7.0 8.0 0.00 0.00 0.00 49 1050.3
20260502192119 53 314 2.0 2.0 0.00 0.00 0.00 54 1050.4
20260502191615 53 301 4.0 4.0 0.00 0.00 0.00 49 1050.4
20260502191113 53 301 4.0 4.0 0.00 0.00 0.00 49 1050.2
20260502190611 54 298 9.0 10.0 0.00 0.00 0.00 47 1050.3
20260502190109 55 294 5.0 8.0 0.00 0.00 0.00 46 1050.4
20260502185608 0 0.0 0.0 0.00 0.00 0.00 1050.3
20260502185106 0 0.0 0.0 0.00 0.00 0.00 1050.4